FW0208 Weather Reports


time (UTC)temp
C
wind
direction
speed
KPH
gust
KPH
rain 1hr
cm
rain 24hr
cm
rain mn
cm
humidity
%
barometer
mb
20260507090011 15 49 4.8 12.9 0.00 0.00 0.00 66 1014.4
20260507084507 15 15 4.8 12.9 0.00 0.00 0.00 65 1014.4
20260507083004 15 355 3.2 8.0 0.00 0.00 0.00 65 1014.4
20260507081610 14 11 3.2 9.7 0.00 0.00 0.00 65 1014.4
20260507080108 13 40 3.2 9.7 0.00 0.05 0.00 67 1014.4
20260507074551 12 50 4.8 9.7 0.00 0.05 0.00 73 1014.4
20260507073046 11 59 4.8 12.9 0.00 0.05 0.00 77 1014.2
20260507071601 11 51 6.4 12.9 0.00 0.05 0.00 80 1014.2
20260507070041 10 42 3.2 9.7 0.00 0.05 0.00 81 1014.2
20260507064538 10 53 4.8 8.0 0.00 0.05 0.00 82 1014.1
20260507063042 10 36 3.2 14.5 0.00 0.05 0.00 82 1014.1
20260507061532 10 42 6.4 14.5 0.00 0.05 0.00 84 1013.9
20260507060035 9 34 4.8 14.5 0.00 0.05 0.00 85 1013.9
20260507054526 9 5 3.2 6.4 0.00 0.05 0.00 86 1013.8
20260507053025 8 337 0.0 8.0 0.00 0.05 0.00 85 1013.7
20260507051529 8 47 4.8 14.5 0.00 0.05 0.00 85 1013.5
20260507050021 8 26 4.8 9.7 0.00 0.05 0.00 85 1013.3
20260507044514 8 40 4.8 9.7 0.00 0.05 0.00 85 1013.2
20260507043013 8 58 4.8 12.9 0.00 0.05 0.00 85 1013.0
20260507041511 8 43 3.2 9.7 0.00 0.05 0.00 85 1013.0
20260507040009 8 24 1.6 9.7 0.00 0.05 0.00 85 1012.8
20260507034514 8 30 1.6 6.4 0.00 0.05 0.00 85 1012.7
20260507033013 8 49 4.8 11.3 0.00 0.05 0.00 85 1012.6
20260507031559 8 44 3.2 9.7 0.00 0.05 0.00 86 1012.5
20260507030057 8 51 0.0 3.2 0.00 0.05 0.00 85 1012.4
20260507024602 8 71 0.0 0.0 0.00 0.05 0.00 85 1012.4
20260507023156 8 71 0.0 0.0 0.00 0.05 0.00 85 1012.3
20260507021551 8 73 0.0 1.6 0.00 0.05 0.00 85 1012.3
20260507020051 8 51 0.0 0.0 0.00 0.05 0.00 84 1012.1
20260507014559 8 51 0.0 0.0 0.00 0.05 0.00 84 1012.0
20260507013050 8 51 0.0 0.0 0.00 0.05 0.00 84 1011.9
20260507011548 8 51 0.0 0.0 0.00 0.05 0.00 83 1011.9
20260507010049 8 51 0.0 0.0 0.00 0.05 0.00 83 1012.0
20260507004547 8 51 0.0 0.0 0.00 0.05 0.00 83 1011.8
20260507003044 8 51 0.0 0.0 0.00 0.05 0.00 83 1011.8
20260507001549 8 51 0.0 0.0 0.00 0.05 0.00 82 1011.8
20260507000041 8 51 0.0 0.0 0.00 0.05 0.00 82 1011.8
20260506234539 8 51 0.0 3.2 0.00 0.05 0.00 81 1011.7
20260506233039 8 52 0.0 0.0 0.00 0.05 0.00 81 1011.7
20260506231538 8 52 0.0 0.0 0.00 0.05 0.00 81 1011.7
20260506230037 8 52 0.0 0.0 0.00 0.05 0.00 79 1011.5
20260506224535 8 52 0.0 1.6 0.00 0.05 0.00 79 1011.4
20260506223033 9 52 0.0 0.0 0.00 0.05 0.00 78 1011.3
20260506221530 9 52 1.6 4.8 0.00 0.05 0.00 78 1011.3
20260506220036 9 49 0.0 0.0 0.00 0.05 0.05 77 1011.3
20260506214527 9 49 0.0 0.0 0.00 0.05 0.05 75 1011.2
20260506213030 9 49 0.0 0.0 0.00 0.05 0.05 74 1011.1
20260506211526 10 50 0.0 0.0 0.00 0.05 0.05 73 1011.0
20260506210024 10 49 0.0 0.0 0.00 0.05 0.05 72 1010.9
20260506204522 10 57 0.0 0.0 0.00 0.05 0.05 70 1010.8
20260506203021 10 57 0.0 4.8 0.00 0.05 0.05 70 1010.6
20260506201519 11 58 1.6 6.4 0.00 0.05 0.05 69 1010.5
20260506200021 11 65 1.6 4.8 0.00 0.05 0.05 68 1010.6
20260506194515 11 59 1.6 6.4 0.00 0.05 0.05 67 1010.4
20260506193011 11 37 6.4 9.7 0.00 0.05 0.05 66 1010.3
20260506191510 12 47 4.8 12.9 0.00 0.05 0.05 66 1010.2
20260506190012 12 59 6.4 16.1 0.00 0.05 0.05 65 1010.0
20260506184506 12 38 4.8 12.9 0.00 0.05 0.05 65 1009.8
20260506183006 13 74 4.8 11.3 0.00 0.05 0.05 64 1009.6
20260506181503 13 52 6.4 11.3 0.00 0.05 0.05 64 1009.3
20260506180001 13 59 6.4 14.5 0.00 0.05 0.05 64 1009.1
20260506174559 13 26 4.8 14.5 0.00 0.05 0.05 64 1009.0
20260506173134 13 64 11.3 22.5 0.00 0.05 0.05 67 1008.7
20260506171557 14 327 14.5 22.5 0.00 0.05 0.05 70 1008.6
20260506170055 14 338 12.9 24.1 0.00 0.05 0.05 70 1008.5
20260506164555 14 324 14.5 22.5 0.00 0.05 0.05 70 1008.4
20260506163059 13 325 8.0 17.7 0.00 0.05 0.05 70 1008.4
20260506161557 14 327 6.4 20.9 0.00 0.05 0.05 69 1008.3
20260506160053 14 332 8.0 17.7 0.00 0.05 0.05 70 1008.4
20260506154553 13 333 8.0 16.1 0.00 0.05 0.05 71 1008.4
20260506153051 14 345 11.3 19.3 0.00 0.05 0.05 69 1008.4
20260506151551 15 339 9.7 19.3 0.00 0.05 0.05 66 1008.4
20260506150150 16 348 12.9 24.1 0.00 0.05 0.05 62 1008.4
20260506144602 17 307 14.5 24.1 0.00 0.05 0.05 62 1008.3
20260506143046 17 338 16.1 24.1 0.00 0.05 0.05 63 1008.3
20260506141543 16 355 11.3 24.1 0.00 0.05 0.05 66 1008.1
20260506140040 16 343 17.7 24.1 0.00 0.05 0.05 66 1008.3
20260506134538 15 315 14.5 24.1 0.00 0.05 0.05 69 1008.3
20260506133041 15 325 14.5 24.1 0.00 0.05 0.05 68 1008.4
20260506131534 16 349 14.5 25.7 0.00 0.05 0.05 69 1008.3
20260506130034 15 329 14.5 24.1 0.00 0.05 0.05 70 1008.2
20260506124528 15 307 12.9 25.7 0.00 0.05 0.05 70 1008.2
20260506123028 15 325 12.9 22.5 0.00 0.05 0.05 70 1008.1
20260506121527 14 340 11.3 24.1 0.00 0.05 0.05 73 1008.1
20260506120028 14 345 11.3 20.9 0.00 0.05 0.05 73 1008.1
20260506114521 14 327 12.9 24.1 0.00 0.05 0.05 73 1008.1
20260506113022 14 313 9.7 20.9 0.00 0.05 0.05 73 1008.0
20260506111520 14 327 9.7 20.9 0.00 0.05 0.05 75 1008.1
20260506110020 14 341 12.9 20.9 0.00 0.05 0.05 76 1008.0
20260506104517 13 326 6.4 20.9 0.00 0.05 0.05 76 1008.1
20260506103016 13 360 8.0 20.9 0.00 0.05 0.05 76 1008.2
20260506101514 13 329 11.3 20.9 0.00 0.05 0.05 76 1008.1
20260506100012 12 317 11.3 22.5 0.00 0.05 0.05 80 1008.1
20260506094506 12 342 11.3 20.9 0.00 0.05 0.05 82 1008.1
20260506093002 11 322 11.3 22.5 0.00 0.05 0.05 87 1008.0
20260506091559 11 355 9.7 24.1 0.00 0.05 0.05 89 1008.0